Iron Mountain, MI

7:26 AM CST on February 22, 2018 (GMT -0600)
Ford

Weather History for KIMT - May, 2014

Change the Weather History Date:

Wednesday, May 14, 2014

  Actual Average Record
Temperature  
Mean Temperature 51 °F -  
Max Temperature 61 °F 64 °F 91 °F (1991)
Min Temperature 42 °F 39 °F 22 °F (1937)
Degree Days  
Heating Degree Days 14    
Growing Degree Days 1 (Base 50)    
Moisture  
Dew Point 29 °F    
Average Humidity 45    
Maximum Humidity 76    
Minimum Humidity 25    
Precipitation  
Precipitation 0.00 in - - ()
Sea Level Pressure  
Sea Level Pressure 30.15 in    
Wind  
Wind Speed 6 mph (NNW)    
Max Wind Speed 12 mph    
Max Gust Speed 18 mph    
Visibility 10 miles    
Events      
Averages and records for this station are not official NWS values.
T = Trace of Precipitation, MM = Missing Value Source: NWS Daily Summary

Daily Weather History Graph

Daily Weather History Graph

Search for Another Location

Airport or City:

Trip Planner

Search our weather history database for the weather conditions in past years. The results will help you decide how hot, cold, wet, or windy it might be!

Date:

Astronomy

May. 14, 2014 Rise Set
Actual Time 5:22 AM CDT 8:16 PM CDT
Civil Twilight 4:47 AM CDT 8:51 PM CDT
Nautical Twilight 4:02 AM CDT 9:35 PM CDT
Astronomical Twilight 3:10 AM CDT 10:28 PM CDT
Moon 8:20 PM CDT (5/14) 5:23 AM CDT (5/14)
Length of Visible Light 16h 03m
Length of Day
14h 54m
Full, 100% of the Moon is Illuminated
May 14
Full
May 14
Full
May 21
Last Quarter
May 28
New
Jun 5
First Quarter

Hourly Weather History & Observations

Time (CDT) Temp. Windchill Dew Point Humidity Pressure Visibility Wind Dir Wind Speed Gust Speed Precip Events Conditions
12:54 AM 45.0 °F - 37.0 °F 74% 30.09 in 10.0 mi Calm Calm - N/A   Scattered Clouds
1:54 AM 44.1 °F 41.5 °F 37.0 °F 76% 30.09 in 10.0 mi West 4.6 mph - N/A   Mostly Cloudy
6:54 AM 42.1 °F 37.1 °F 34.0 °F 73% 30.16 in 10.0 mi West 8.1 mph - N/A   Clear
7:54 AM 46.0 °F 43.9 °F 34.0 °F 63% 30.17 in 10.0 mi West 4.6 mph - N/A   Clear
8:54 AM 50.0 °F - 33.1 °F 52% 30.17 in 10.0 mi NW 11.5 mph - N/A   Clear
10:54 AM 53.1 °F - 28.0 °F 38% 30.17 in 10.0 mi WNW 3.5 mph - N/A   Mostly Cloudy
11:54 AM 57.0 °F - 28.0 °F 33% 30.16 in 10.0 mi NW 11.5 mph - N/A   Mostly Cloudy
12:54 PM 57.9 °F - 26.1 °F 30% 30.15 in 10.0 mi WNW 9.2 mph 18.4 mph N/A   Scattered Clouds
1:54 PM 59.0 °F - 25.0 °F 27% 30.15 in 10.0 mi NW 11.5 mph 18.4 mph N/A   Mostly Cloudy
2:54 PM 60.1 °F - 24.1 °F 25% 30.12 in 10.0 mi WNW 10.4 mph 16.1 mph N/A   Scattered Clouds
3:54 PM 60.1 °F - 25.0 °F 26% 30.12 in 10.0 mi North 9.2 mph - N/A   Partly Cloudy
4:54 PM 59.0 °F - 25.0 °F 27% 30.12 in 10.0 mi North 9.2 mph - N/A   Overcast
5:54 PM 57.9 °F - 26.1 °F 30% 30.12 in 10.0 mi NNW 8.1 mph - N/A   Scattered Clouds
6:54 PM 53.1 °F - 30.9 °F 43% 30.14 in 10.0 mi NE 9.2 mph 17.3 mph N/A   Overcast
7:54 PM 48.9 °F - 28.9 °F 46% 30.15 in 10.0 mi East 6.9 mph 17.3 mph N/A   Overcast
8:54 PM 46.9 °F - 28.0 °F 48% 30.18 in 10.0 mi ENE 5.8 mph - N/A   Overcast
9:54 PM 45.0 °F 41.8 °F 27.0 °F 49% 30.19 in 10.0 mi NE 5.8 mph - N/A   Overcast
10:54 PM 44.1 °F 39.0 °F 26.1 °F 49% 30.17 in 10.0 mi NNE 9.2 mph 17.3 mph N/A   Overcast
11:54 PM 43.0 °F 38.2 °F 26.1 °F 51% 30.17 in 10.0 mi NNE 8.1 mph - N/A   Overcast